SCP
-0 -0 0 0 0 0 0 0 0 0 0 0 0 0 0 0 0 0 0 0 0 0 0 0 0 0 0 0 0 0 0 0 0 0 0 0 0 0 0 0 0 0 0
-0 -0 0 0 0 0 0 0 0 0 0 0 0 0 0 0 0 0 0 0 0 0 0 0 0 0 0 0 0 0 0 0 0 0 0 0 0 0 0 0 0 0 0
0 0 0 0 0 0 0 0 0 0 0 0 0 0 0 0 0 0 0 0 0 0 0 0 0 0 0 0 0 0 0 0 0 0 0 0 0 0 0 0 0 0 0
0 0 0 0 0 0 0 0 0 0 0 0 0 0 0 0 0 0 0 0 0 0 0 0 0 0 0 0 0 0 0 0 0 0 0 0 0 0 0 0 0 0 0
0 0 0 0 0 0 0 0 0 0 0 0 0 0 0 0 0 0 0 0 0 0 0 0 0 0 0 0 0 0 0 0 0 0 0 0 0 0 0 0 0 0 0
0 0 0 0 0 0 0 0 0 0 0 0 0 0 0 0 0 0 0 0 0 0 0 0 0 0 0 0 0 0 0 0 0 0 0 0 0 0 0 0 0 0 0
0 0 0 0 0 0 0 0 0 0 0 0 0 0 0 0 0 0 0 0 0 0 0 0 0 0 0 0 0 0 0 0 0 0 0 0 0 0 0 0 0 0 0
0 0 0 0 0 0 0 0 0 0 0 0 0 0 0 0 0 0 0 0 0 0 0 0 0 0 0 0 0 0 0 0 0 0 0 0 0 0 0 0 0 0 0
0 0 0 0 0 0 0 0 0 0 0 0 0 0 0 0 0 0 0 0 0 0 0 0 0 0 0 0 0 0 0 0 0 0 0 0 0 0 0 0 0 0 0
0 0 0 0 0 0 0 0 0 0 0 0 0 0 0 0 0 0 0 0 0 0 0 0 0 0 0 0 0 0 0 0 0 0 0 0 0 0 0 0 0 0 0
0 0 0 0 0 0 0 0 0 0 0 0 0 0 0 0 0 0 0 0 0 0 0 0 0 0 0 0 0 0 0 0 0 0 0 0 0 0 0 0 0 0 0
0 0 0 0 0 0 0 0 0 0 0 0 0 0 0 0 0 0 0 0 0 0 0 0 0 0 0 0 0 0 0 0 0 0 0 0 0 0 0 0 0 0 0
0 0 0 0 0 0 0 0 0 0 0 0 0 0 0 0 0 0 0 0 0 0 0 0 0 0 0 0 0 0 0 0 0 0 0 0 0 0 0 0 0 0 0
0 0 0 0 0 0 0 0 0 0 0 0 0 0 0 0 0 0 0 0 0 0 0 0 0 0 0 0 0 0 0 0 0 0 0 0 0 0 0 0 0 0 0
0 0 0 0 0 0 0 0 0 0 0 0 0 0 0 0 0 0 0 0 0 0 0 0 0 0 0 0 0 0 0 0 0 0 0 0 0 0 0 0 0 0 0
0 0 0 0 0 0 0 0 0 0 0 0 0 0 0 0 0 -0 0 0 0 0 0 0 0 0 0 0 0 0 0 0 0 0 0 0 0 0 0 0 0 0 0
0 0 0 0 0 0 0 0 0 0 0 0 0 0 0 0 0 0 0 0 0 0 0 0 0 0 0 0 0 0 0 0 0 0 0 0 0 0 0 0 0 0 0
0 0 0 0 0 0 0 0 0 0 0 0 0 0 0 0 0 0 0 0 0 0 0 0 0 0 0 0 0 0 0 0 0 0 0 0 0 0 0 0 0 0 0
0 0 0 0 0 0 0 0 0 0 0 0 0 0 0 0 0 0 0 0 0 0 0 0 0 0 0 0 0 0 0 0 0 0 0 0 0 0 0 0 0 0 0
0 0 0 0 0 0 0 0 0 0 0 0 0 0 0 0 0 0 0 0 0 0 0 0 0 0 0 0 0 0 0 0 0 0 0 0 0 0 0 0 0 0 0
0 0 0 0 0 0 0 0 0 0 0 0 0 0 0 0 0 0 0 0 0 0 0 0 0 0 0 0 0 0 0 0 0 0 0 0 0 0 0 0 0 0 0
0 0 0 0 0 0 0 0 0 0 0 0 0 0 0 0 0 0 0 0 0 0 0 0 0 0 0 0 0 0 0 0 0 0 0 0 0 0 0 0 0 0 0
0 0 0 0 0 0 0 0 0 0 0 0 0 0 0 0 0 0 0 0 0 0 0 0 0 0 0 0 0 0 0 0 0 0 0 0 0 0 0 0 0 0 0
0 0 0 0 0 0 0 0 0 0 0 0 0 0 0 0 0 0 0 0 0 0 0 0 0 0 0 0 0 0 0 0 0 0 0 0 0 0 0 0 0 0 0
0 0 0 0 0 0 0 0 0 0 0 0 0 0 0 0 0 0 0 0 0 0 0 0 0 0 0 0 0 0 0 0 0 0 0 0 0 0 0 0 0 0 0
0 0 0 0 0 0 0 0 0 0 0 0 0 0 0 0 0 0 0 0 0 0 0 0 0 0 0 0 0 0 0 0 0 0 0 0 0 0 0 0 0 0 0
Wind_Speed_500mb
4 7 12 17 25 33 40 46 52 57 62 60 55 52 52 58 71 78 79 85 85 79 90 87 85 86 87 94 94 82 74 68 55 49 58 50 43 49 44 37 31 25 28
16 21 25 28 31 37 41 42 47 52 53 54 52 52 52 56 61 66 78 70 76 80 88 78 83 75 87 83 82 75 65 58 49 47 48 53 46 41 37 35 30 31 28
28 31 35 42 45 49 49 50 48 47 49 54 56 57 56 55 52 56 64 68 70 77 74 80 79 77 80 78 74 64 63 51 52 53 53 46 41 39 38 32 32 32 24
46 47 49 50 54 58 59 59 56 50 49 53 56 55 55 54 55 58 61 64 67 68 72 70 69 71 73 73 64 56 60 40 45 41 31 39 35 30 34 39 33 29 29
58 59 61 60 61 65 67 66 64 57 52 52 55 55 54 56 55 57 61 64 67 68 66 64 64 63 60 64 63 53 45 55 49 43 36 33 38 39 39 36 37 33 33
53 64 68 66 67 67 66 66 67 60 57 55 55 55 56 55 53 57 59 60 61 62 62 60 56 53 54 55 50 51 51 59 47 39 27 34 28 42 45 35 29 33 38
65 66 67 68 69 66 63 66 66 63 61 59 57 56 55 50 54 56 57 57 55 55 55 53 55 51 49 53 49 56 53 48 27 15 17 27 35 38 37 38 38 39 41
60 59 54 56 59 58 60 62 62 62 62 59 57 56 54 50 55 55 53 49 48 49 49 49 50 53 60 61 73 65 56 47 25 22 30 38 35 29 30 31 37 38 39
60 60 57 56 56 54 57 58 58 59 59 58 56 54 53 50 54 55 53 48 44 44 45 47 49 50 55 73 74 62 52 30 33 29 28 30 26 26 29 35 35 34 38
60 58 53 52 52 51 48 49 52 54 53 52 49 51 49 47 47 46 46 44 46 48 48 45 48 53 71 73 63 53 41 40 22 14 23 26 28 28 31 35 33 32 33
58 57 52 48 44 44 44 44 44 48 49 48 48 50 49 47 43 43 40 41 47 52 53 64 70 68 75 67 57 48 39 16 13 19 24 29 29 31 34 34 29 31 36
54 50 51 47 41 38 38 38 39 43 44 43 46 47 47 45 42 41 39 37 47 54 62 67 61 63 69 55 52 44 22 19 25 23 27 32 36 36 34 30 33 35 37
57 52 46 45 42 38 37 35 35 37 39 39 42 42 43 44 42 38 42 36 40 46 51 54 59 71 62 57 47 30 25 31 33 30 30 36 37 34 34 37 38 37 39
52 49 45 41 37 35 34 32 30 29 31 32 35 37 38 37 37 36 43 44 34 38 41 46 53 63 73 67 50 45 39 38 38 30 31 38 38 41 40 41 40 41 41
51 47 45 41 37 31 30 27 25 23 22 21 19 21 22 24 27 33 43 42 35 36 45 53 62 67 67 64 60 49 47 43 41 38 41 44 46 46 46 44 43 43 41
52 49 46 42 36 31 27 27 26 22 22 20 19 17 17 18 20 26 36 40 32 36 49 55 60 67 71 67 63 58 52 47 42 45 48 48 48 49 47 46 47 45 42
46 45 43 39 33 26 25 26 25 22 19 18 17 17 20 21 22 27 33 33 32 40 47 53 59 63 62 60 61 56 53 48 48 48 49 48 48 50 49 50 49 46 42
40 34 27 26 26 23 22 26 21 19 23 22 21 20 22 21 21 24 31 32 35 38 46 44 51 54 54 50 53 55 50 51 52 54 53 53 54 53 53 51 49 45 42
31 27 19 13 18 18 15 12 15 19 17 17 19 21 22 20 23 27 32 38 44 46 52 49 43 40 42 44 43 45 47 51 54 55 57 57 55 54 53 50 48 47 44
26 24 20 14 10 14 15 15 17 14 15 17 20 22 21 20 18 22 30 39 48 48 51 47 43 45 43 40 39 41 46 50 53 55 56 54 53 54 52 49 48 47 44
29 27 23 20 20 23 23 21 19 16 14 14 16 20 21 20 21 25 26 28 31 34 36 40 45 45 44 45 49 47 44 44 44 47 49 52 53 53 50 49 48 46 44
23 21 16 20 19 24 25 24 24 25 20 13 11 10 12 17 18 18 23 29 33 35 39 41 42 43 43 42 41 39 39 39 42 46 49 50 52 53 52 51 49 47 46
12 18 24 27 28 26 27 28 27 24 19 18 16 13 14 15 17 19 21 24 27 30 33 35 36 38 40 41 42 44 46 46 47 49 50 52 53 52 52 52 49 49 49
18 20 21 21 20 20 21 19 15 12 12 13 14 13 13 15 18 22 26 29 32 35 38 41 43 43 45 45 46 48 49 49 49 50 52 54 54 53 53 53 51 49 46
16 17 16 14 14 15 12 10 9 9 10 13 13 14 14 18 22 25 29 32 34 36 39 42 43 44 45 46 46 48 48 47 48 50 52 53 53 51 51 50 49 47 47
13 13 12 11 10 8 8 9 9 10 13 15 16 18 19 23 25 27 30 34 36 39 41 43 44 45 45 45 46 48 48 49 48 49 50 52 51 52 52 51 51 51 50
Wind_Direction_500mb
1 334 325 299 286 281 275 269 265 266 266 264 262 259 254 242 241 244 250 248 250 256 255 254 254 256 248 244 239 242 236 232 238 234 231 220 212 213 217 225 238 249 264
304 303 301 295 297 289 285 279 269 266 266 266 260 254 250 246 246 246 248 250 253 253 258 257 259 255 250 247 241 239 234 227 233 230 233 207 202 200 211 223 236 248 251
277 284 292 302 302 296 285 282 275 271 267 262 258 256 252 249 245 244 245 248 253 256 254 258 252 252 246 239 233 227 221 217 228 234 204 194 196 201 212 228 238 240 252
278 277 275 288 294 288 281 277 275 271 267 260 256 255 252 249 250 246 247 250 252 251 254 251 253 251 246 238 232 215 211 205 195 194 196 198 202 204 220 233 236 249 259
291 282 287 282 279 279 276 274 272 268 269 262 254 250 248 249 250 250 250 255 253 252 250 248 247 243 239 238 226 204 188 196 200 191 181 183 210 225 222 226 234 252 262
287 289 291 286 282 278 274 270 270 268 268 264 257 252 248 249 251 251 251 252 251 246 242 242 241 237 229 219 191 189 204 202 182 179 218 221 225 215 232 235 241 255 277
292 294 291 286 281 278 273 269 267 266 265 261 255 251 249 252 251 251 251 252 250 248 245 240 231 223 206 184 174 188 187 181 203 218 264 273 256 239 235 240 250 263 277
299 295 291 287 282 276 270 267 265 262 260 259 253 250 249 249 250 250 249 248 244 243 238 233 227 204 193 178 183 186 195 218 218 259 276 275 257 250 255 257 262 271 282
306 300 292 285 280 276 272 270 266 262 258 255 250 244 244 244 247 247 246 245 240 233 227 223 217 208 191 190 190 203 205 206 241 246 262 258 256 247 254 258 267 281 291
303 301 298 293 288 281 275 268 263 260 258 253 248 245 246 245 246 246 245 238 230 221 212 207 206 198 189 193 200 206 218 223 232 253 252 241 239 248 255 266 272 276 285
309 304 301 296 290 282 274 266 261 255 253 249 244 243 243 241 239 238 239 234 226 221 210 198 196 202 202 203 204 218 220 214 238 248 250 241 240 247 255 263 267 278 286
308 307 303 297 290 279 271 265 258 252 248 244 239 239 240 239 235 229 228 223 225 222 215 213 203 193 193 206 208 212 213 242 245 251 251 246 245 248 253 261 273 279 284
308 306 299 294 289 282 273 263 253 247 241 238 237 238 238 238 230 217 215 216 219 216 217 210 205 201 196 203 209 220 237 248 243 254 254 252 249 251 254 270 277 279 287
304 300 295 292 289 285 274 258 242 234 234 230 231 233 234 234 227 210 205 216 226 212 205 198 194 193 201 215 232 233 240 250 253 251 257 256 249 252 261 268 272 278 281
304 299 291 285 282 276 264 252 240 223 220 220 223 231 235 238 234 213 209 213 203 196 185 181 191 207 213 218 229 232 239 249 249 260 251 251 251 254 262 267 269 272 275
302 297 290 282 274 263 251 238 219 209 207 197 191 187 194 198 202 206 202 215 211 202 201 204 210 208 213 222 226 232 246 252 252 256 249 251 251 257 261 262 266 268 271
296 294 287 278 267 247 232 231 221 192 197 193 195 180 192 194 198 187 190 200 205 201 211 215 214 218 223 232 231 239 252 254 265 255 255 254 258 259 259 262 263 263 267
289 284 273 272 255 236 216 213 204 207 208 203 211 208 202 196 187 184 182 190 207 207 223 225 232 233 232 229 236 249 250 258 257 258 256 257 257 254 255 258 260 263 266
272 257 248 242 242 216 197 197 185 203 209 217 212 211 210 200 194 182 184 197 211 213 228 236 241 242 245 247 251 255 259 259 259 259 259 258 254 253 257 257 256 260 262
242 231 224 219 227 248 237 233 226 212 202 203 205 207 204 203 205 203 201 205 217 224 228 237 245 253 262 265 265 265 263 258 255 255 255 254 254 257 259 258 258 260 263
215 213 207 223 238 237 233 226 233 239 231 212 196 192 193 197 200 207 211 222 231 236 243 248 252 255 257 259 265 264 260 258 256 255 255 255 258 263 262 260 259 258 259
202 203 230 249 241 235 231 229 229 232 231 235 231 218 197 205 210 208 212 219 226 233 240 247 252 255 257 258 257 257 256 257 258 259 261 263 264 261 259 257 257 257 257
213 223 224 230 231 228 228 229 227 231 238 243 245 235 221 228 231 234 234 236 239 243 249 255 259 262 263 264 265 264 264 263 262 260 260 260 260 259 258 257 256 254 254
210 221 227 223 224 228 227 229 235 242 247 249 247 246 243 246 247 248 249 252 256 257 259 261 265 266 268 270 271 271 269 268 266 264 263 262 261 259 255 253 252 253 255
203 199 209 209 209 214 218 227 233 243 255 262 266 266 267 263 261 260 261 263 265 267 269 270 271 271 272 272 271 270 268 266 264 262 261 259 258 255 254 254 254 254 254
181 188 196 198 204 219 236 249 257 264 267 272 279 281 280 277 276 274 272 272 271 271 270 271 272 273 272 271 270 268 267 266 264 262 261 260 259 258 257 257 254 253 253
Wind_Speed_850mb
4 7 12 17 25 33 40 46 52 57 62 60 55 52 52 58 71 78 79 85 85 79 90 87 85 86 87 94 94 82 74 68 55 49 58 50 43 49 44 37 31 25 28
16 21 25 28 31 37 41 42 47 52 53 54 52 52 52 56 61 66 78 70 76 80 88 78 83 75 87 83 82 75 65 58 49 47 48 53 46 41 37 35 30 31 28
28 31 35 42 45 49 49 50 48 47 49 54 56 57 56 55 52 56 64 68 70 77 74 80 79 77 80 78 74 64 63 51 52 53 53 46 41 39 38 32 32 32 24
46 47 49 50 54 58 59 59 56 50 49 53 56 55 55 54 55 58 61 64 67 68 72 70 69 71 73 73 64 56 60 40 45 41 31 39 35 30 34 39 33 29 29
58 59 61 60 61 65 67 66 64 57 52 52 55 55 54 56 55 57 61 64 67 68 66 64 64 63 60 64 63 53 45 55 49 43 36 33 38 39 39 36 37 33 33
53 64 68 66 67 67 66 66 67 60 57 55 55 55 56 55 53 57 59 60 61 62 62 60 56 53 54 55 50 51 51 59 47 39 27 34 28 42 45 35 29 33 38
65 66 67 68 69 66 63 66 66 63 61 59 57 56 55 50 54 56 57 57 55 55 55 53 55 51 49 53 49 56 53 48 27 15 17 27 35 38 37 38 38 39 41
60 59 54 56 59 58 60 62 62 62 62 59 57 56 54 50 55 55 53 49 48 49 49 49 50 53 60 61 73 65 56 47 25 22 30 38 35 29 30 31 37 38 39
60 60 57 56 56 54 57 58 58 59 59 58 56 54 53 50 54 55 53 48 44 44 45 47 49 50 55 73 74 62 52 30 33 29 28 30 26 26 29 35 35 34 38
60 58 53 52 52 51 48 49 52 54 53 52 49 51 49 47 47 46 46 44 46 48 48 45 48 53 71 73 63 53 41 40 22 14 23 26 28 28 31 35 33 32 33
58 57 52 48 44 44 44 44 44 48 49 48 48 50 49 47 43 43 40 41 47 52 53 64 70 68 75 67 57 48 39 16 13 19 24 29 29 31 34 34 29 31 36
54 50 51 47 41 38 38 38 39 43 44 43 46 47 47 45 42 41 39 37 47 54 62 67 61 63 69 55 52 44 22 19 25 23 27 32 36 36 34 30 33 35 37
57 52 46 45 42 38 37 35 35 37 39 39 42 42 43 44 42 38 42 36 40 46 51 54 59 71 62 57 47 30 25 31 33 30 30 36 37 34 34 37 38 37 39
52 49 45 41 37 35 34 32 30 29 31 32 35 37 38 37 37 36 43 44 34 38 41 46 53 63 73 67 50 45 39 38 38 30 31 38 38 41 40 41 40 41 41
51 47 45 41 37 31 30 27 25 23 22 21 19 21 22 24 27 33 43 42 35 36 45 53 62 67 67 64 60 49 47 43 41 38 41 44 46 46 46 44 43 43 41
52 49 46 42 36 31 27 27 26 22 22 20 19 17 17 18 20 26 36 40 32 36 49 55 60 67 71 67 63 58 52 47 42 45 48 48 48 49 47 46 47 45 42
46 45 43 39 33 26 25 26 25 22 19 18 17 17 20 21 22 27 33 33 32 40 47 53 59 63 62 60 61 56 53 48 48 48 49 48 48 50 49 50 49 46 42
40 34 27 26 26 23 22 26 21 19 23 22 21 20 22 21 21 24 31 32 35 38 46 44 51 54 54 50 53 55 50 51 52 54 53 53 54 53 53 51 49 45 42
31 27 19 13 18 18 15 12 15 19 17 17 19 21 22 20 23 27 32 38 44 46 52 49 43 40 42 44 43 45 47 51 54 55 57 57 55 54 53 50 48 47 44
26 24 20 14 10 14 15 15 17 14 15 17 20 22 21 20 18 22 30 39 48 48 51 47 43 45 43 40 39 41 46 50 53 55 56 54 53 54 52 49 48 47 44
29 27 23 20 20 23 23 21 19 16 14 14 16 20 21 20 21 25 26 28 31 34 36 40 45 45 44 45 49 47 44 44 44 47 49 52 53 53 50 49 48 46 44
23 21 16 20 19 24 25 24 24 25 20 13 11 10 12 17 18 18 23 29 33 35 39 41 42 43 43 42 41 39 39 39 42 46 49 50 52 53 52 51 49 47 46
12 18 24 27 28 26 27 28 27 24 19 18 16 13 14 15 17 19 21 24 27 30 33 35 36 38 40 41 42 44 46 46 47 49 50 52 53 52 52 52 49 49 49
18 20 21 21 20 20 21 19 15 12 12 13 14 13 13 15 18 22 26 29 32 35 38 41 43 43 45 45 46 48 49 49 49 50 52 54 54 53 53 53 51 49 46
16 17 16 14 14 15 12 10 9 9 10 13 13 14 14 18 22 25 29 32 34 36 39 42 43 44 45 46 46 48 48 47 48 50 52 53 53 51 51 50 49 47 47
13 13 12 11 10 8 8 9 9 10 13 15 16 18 19 23 25 27 30 34 36 39 41 43 44 45 45 45 46 48 48 49 48 49 50 52 51 52 52 51 51 51 50
Wind_Direction_850mb
1 334 325 299 286 281 275 269 265 266 266 264 262 259 254 242 241 244 250 248 250 256 255 254 254 256 248 244 239 242 236 232 238 234 231 220 212 213 217 225 238 249 264
304 303 301 295 297 289 285 279 269 266 266 266 260 254 250 246 246 246 248 250 253 253 258 257 259 255 250 247 241 239 234 227 233 230 233 207 202 200 211 223 236 248 251
277 284 292 302 302 296 285 282 275 271 267 262 258 256 252 249 245 244 245 248 253 256 254 258 252 252 246 239 233 227 221 217 228 234 204 194 196 201 212 228 238 240 252
278 277 275 288 294 288 281 277 275 271 267 260 256 255 252 249 250 246 247 250 252 251 254 251 253 251 246 238 232 215 211 205 195 194 196 198 202 204 220 233 236 249 259
291 282 287 282 279 279 276 274 272 268 269 262 254 250 248 249 250 250 250 255 253 252 250 248 247 243 239 238 226 204 188 196 200 191 181 183 210 225 222 226 234 252 262
287 289 291 286 282 278 274 270 270 268 268 264 257 252 248 249 251 251 251 252 251 246 242 242 241 237 229 219 191 189 204 202 182 179 218 221 225 215 232 235 241 255 277
292 294 291 286 281 278 273 269 267 266 265 261 255 251 249 252 251 251 251 252 250 248 245 240 231 223 206 184 174 188 187 181 203 218 264 273 256 239 235 240 250 263 277
299 295 291 287 282 276 270 267 265 262 260 259 253 250 249 249 250 250 249 248 244 243 238 233 227 204 193 178 183 186 195 218 218 259 276 275 257 250 255 257 262 271 282
306 300 292 285 280 276 272 270 266 262 258 255 250 244 244 244 247 247 246 245 240 233 227 223 217 208 191 190 190 203 205 206 241 246 262 258 256 247 254 258 267 281 291
303 301 298 293 288 281 275 268 263 260 258 253 248 245 246 245 246 246 245 238 230 221 212 207 206 198 189 193 200 206 218 223 232 253 252 241 239 248 255 266 272 276 285
309 304 301 296 290 282 274 266 261 255 253 249 244 243 243 241 239 238 239 234 226 221 210 198 196 202 202 203 204 218 220 214 238 248 250 241 240 247 255 263 267 278 286
308 307 303 297 290 279 271 265 258 252 248 244 239 239 240 239 235 229 228 223 225 222 215 213 203 193 193 206 208 212 213 242 245 251 251 246 245 248 253 261 273 279 284
308 306 299 294 289 282 273 263 253 247 241 238 237 238 238 238 230 217 215 216 219 216 217 210 205 201 196 203 209 220 237 248 243 254 254 252 249 251 254 270 277 279 287
304 300 295 292 289 285 274 258 242 234 234 230 231 233 234 234 227 210 205 216 226 212 205 198 194 193 201 215 232 233 240 250 253 251 257 256 249 252 261 268 272 278 281
304 299 291 285 282 276 264 252 240 223 220 220 223 231 235 238 234 213 209 213 203 196 185 181 191 207 213 218 229 232 239 249 249 260 251 251 251 254 262 267 269 272 275
302 297 290 282 274 263 251 238 219 209 207 197 191 187 194 198 202 206 202 215 211 202 201 204 210 208 213 222 226 232 246 252 252 256 249 251 251 257 261 262 266 268 271
296 294 287 278 267 247 232 231 221 192 197 193 195 180 192 194 198 187 190 200 205 201 211 215 214 218 223 232 231 239 252 254 265 255 255 254 258 259 259 262 263 263 267
289 284 273 272 255 236 216 213 204 207 208 203 211 208 202 196 187 184 182 190 207 207 223 225 232 233 232 229 236 249 250 258 257 258 256 257 257 254 255 258 260 263 266
272 257 248 242 242 216 197 197 185 203 209 217 212 211 210 200 194 182 184 197 211 213 228 236 241 242 245 247 251 255 259 259 259 259 259 258 254 253 257 257 256 260 262
242 231 224 219 227 248 237 233 226 212 202 203 205 207 204 203 205 203 201 205 217 224 228 237 245 253 262 265 265 265 263 258 255 255 255 254 254 257 259 258 258 260 263
215 213 207 223 238 237 233 226 233 239 231 212 196 192 193 197 200 207 211 222 231 236 243 248 252 255 257 259 265 264 260 258 256 255 255 255 258 263 262 260 259 258 259
202 203 230 249 241 235 231 229 229 232 231 235 231 218 197 205 210 208 212 219 226 233 240 247 252 255 257 258 257 257 256 257 258 259 261 263 264 261 259 257 257 257 257
213 223 224 230 231 228 228 229 227 231 238 243 245 235 221 228 231 234 234 236 239 243 249 255 259 262 263 264 265 264 264 263 262 260 260 260 260 259 258 257 256 254 254
210 221 227 223 224 228 227 229 235 242 247 249 247 246 243 246 247 248 249 252 256 257 259 261 265 266 268 270 271 271 269 268 266 264 263 262 261 259 255 253 252 253 255
203 199 209 209 209 214 218 227 233 243 255 262 266 266 267 263 261 260 261 263 265 267 269 270 271 271 272 272 271 270 268 266 264 262 261 259 258 255 254 254 254 254 254
181 188 196 198 204 219 236 249 257 264 267 272 279 281 280 277 276 274 272 272 271 271 270 271 272 273 272 271 270 268 267 266 264 262 261 260 259 258 257 257 254 253 253